User: anonymous   Login
Location: Newark
(35.6799°N, 139.7636°E)
Time: 08:45:23
(UTC+00:00)
Language:

Altair - Orbit

View from above orbital plane
View from above orbital plane
View from above satellite
View from above satellite

Ground track
Ground track

The orbit data is extracted from the following two-line orbital elements,

1    50U 60009B   19341.75028748 -.00000102 +00000-0 -14621-3 0  9991
2    50 047.2329 359.3542 0112913 111.5933 249.6930 12.20108878646696
Epoch (UTC): 07 December 2019 18:00:24
Eccentricity: 0.0112913
inclination: 47.2329°
perigee height: 1502 km
apogee height: 1682 km
right ascension of ascending node: 359.3542°
argument of perigee: 111.5933°
revolutions per day: 12.20108878
mean anomaly at epoch: 249.6930°
orbit number at epoch: 64669

The dashed part of the orbit path shows where the satellite is in the earth's shadow,  

DLR